Location: Beeston
(52.7000°N, 0.8167°E)
Time: 12:30:15
(UTC+00:00)

CZ-2C R/B - Pass Details

Date: 15 May 2026
Orbit: 332 x 344 km, 97.7° (Epoch: 8 June)

Event Time Altitude Azimuth Distance (km) Brightness Sun altitude
Exits shadow 20:29:29 - 110° (ESE) 1,525 4.5 -5.8°
Reaches altitude 10° 20:30:20 10° 98° (E) 1,274 4.2 -5.9°
Drops below altitude 10° 20:33:27 10° 27° (NNE) 1,282 4.9 -6.3°
Enters shadow 21:25:22 -73° 167° (SSE) 12,565 9.6 -11.4°
Maximum altitude 22:02:22 32° 261° (W) 602 3.2 -14.3°
